Wind_Speed
23 23 20 18 19 19 18 17 15 17 17 19 25 29 35 44 42 40 36 34 36 35 36 36 32 27 25 22 21 22 18 15 10 8 9 7 7 7 7 7 6 3 4
24 23 21 20 20 18 19 14 12 14 17 20 24 30 35 33 43 45 40 39 39 36 40 36 33 32 34 35 30 26 26 26 19 14 9 7 7 7 6 5 6 5 4
22 23 20 20 21 19 17 14 11 10 10 12 18 22 23 34 37 41 43 42 41 38 39 38 36 35 33 31 30 26 26 25 22 18 7 7 6 5 4 4 6 7 3
19 22 22 20 21 21 18 13 12 8 9 11 12 17 15 22 27 32 34 40 37 35 33 34 32 35 31 31 29 29 23 19 15 13 9 9 7 5 6 8 9 9 3
21 21 20 18 21 22 19 15 12 10 9 9 10 11 14 17 26 26 28 31 34 35 33 31 26 26 27 25 23 17 16 14 12 11 11 11 10 9 8 9 9 9 3
20 20 21 22 21 21 21 17 14 12 10 11 13 13 15 14 22 28 35 33 35 35 32 25 19 17 17 17 17 16 14 15 16 18 19 19 15 10 11 13 13 8 3
22 20 21 24 23 22 22 19 15 15 14 14 14 15 14 15 16 25 35 36 32 29 29 28 26 25 23 24 25 26 25 22 21 21 24 14 14 12 9 12 11 8 6
22 22 22 24 24 24 23 23 20 21 20 18 18 17 18 20 21 25 29 31 33 30 29 29 30 29 28 32 34 34 32 30 27 27 26 22 17 13 12 10 9 9 4
19 22 22 24 25 26 27 27 25 25 25 23 21 21 22 24 27 31 32 35 35 32 30 29 30 31 29 29 34 39 36 33 27 27 27 24 20 19 16 11 13 13 6
20 22 22 22 28 31 32 31 29 29 29 27 26 23 24 27 27 31 35 39 41 39 35 33 30 33 28 28 31 32 30 20 19 18 19 19 18 17 18 16 12 11 9
2 21 25 27 29 31 33 34 35 34 33 31 32 27 25 25 27 30 33 37 38 37 34 33 30 28 28 26 27 28 28 22 19 17 17 16 15 15 14 13 12 10 9
7 20 27 28 31 33 35 32 35 37 35 31 34 31 30 30 29 31 36 38 36 39 36 35 32 30 30 28 28 26 24 22 18 17 16 16 14 14 12 11 10 10 6
16 15 25 28 29 30 32 31 28 28 30 27 29 30 31 33 36 37 40 42 43 43 39 36 34 32 31 31 26 24 22 21 20 18 17 15 12 11 11 11 11 12 9
24 23 22 27 32 29 29 24 20 27 24 27 29 31 32 31 31 38 41 43 41 44 39 34 33 32 30 28 27 24 20 17 17 17 15 12 10 11 12 13 14 16 14
19 22 21 28 26 32 31 28 28 21 31 28 31 29 33 32 28 38 42 41 39 39 40 34 29 24 21 20 21 19 17 15 16 14 13 12 11 10 11 12 12 12 12
17 20 23 24 23 30 34 37 34 34 35 36 36 36 33 38 34 34 34 35 37 36 31 25 22 20 19 18 19 17 15 14 14 13 12 11 10 11 10 10 11 12 14
19 21 24 25 23 24 31 35 37 39 40 38 37 35 38 38 36 34 31 30 26 25 27 23 22 19 19 18 17 15 15 13 13 12 11 11 10 9 10 11 13 14 15
23 23 25 24 26 26 29 31 32 34 33 36 36 36 37 35 32 30 27 27 25 23 20 21 20 18 17 17 15 14 13 11 10 10 10 10 11 9 10 11 11 13 15
24 23 24 26 26 27 29 31 31 32 33 33 35 33 31 30 26 21 19 22 22 21 18 18 17 17 16 16 15 14 12 11 10 9 9 10 11 8 8 8 10 12 13
28 29 28 28 28 28 29 30 30 28 26 26 25 23 25 22 20 19 19 19 19 18 17 17 16 16 17 16 15 13 11 8 8 8 8 8 8 6 6 8 11 13 13
25 27 27 27 26 26 25 25 24 25 25 25 22 16 16 18 20 19 18 16 17 17 16 16 16 16 15 13 11 10 8 8 6 5 5 7 7 5 7 8 10 11 12
24 24 23 24 24 25 26 26 26 25 24 23 20 19 21 19 19 19 18 17 18 18 17 16 15 12 10 9 9 8 7 4 3 4 5 7 6 6 7 8 10 11 13
23 25 24 24 26 27 26 24 24 23 22 20 18 17 17 18 18 18 18 17 16 16 16 14 13 11 9 7 6 5 3 1 1 4 6 7 6 7 7 8 10 12 13
21 21 22 21 21 22 22 22 21 20 20 19 18 17 18 18 18 18 18 17 15 14 13 11 9 6 5 4 2 1 1 2 4 6 8 8 7 9 9 9 10 12 12
18 21 22 22 21 23 23 20 19 19 18 18 18 18 18 19 18 17 16 14 13 11 9 6 5 3 2 2 2 3 5 6 7 9 8 8 9 10 10 10 11 11 11
18 19 20 20 19 20 20 20 19 18 18 18 18 17 16 16 16 14 12 11 9 7 5 4 3 2 2 2 4 6 7 8 9 10 9 9 10 10 9 10 11 11 11
Wind_Direction
180 181 183 191 196 206 213 222 226 231 224 222 226 215 203 204 205 196 193 191 190 182 186 191 190 198 204 200 211 217 226 218 214 236 234 213 180 190 164 159 134 110 51
186 184 181 195 195 201 212 220 224 231 237 240 238 238 224 205 195 192 186 189 188 185 188 199 208 220 224 220 220 227 227 224 220 237 207 185 154 150 149 127 96 85 51
178 182 177 186 193 204 207 219 222 223 236 245 251 244 230 212 195 191 191 189 187 191 191 194 202 209 211 206 221 218 219 226 231 226 180 166 134 128 117 85 54 88 48
184 185 182 182 191 204 202 205 216 215 221 218 233 230 208 187 181 190 191 183 183 185 190 192 201 204 201 206 210 215 216 212 208 190 146 130 128 74 68 41 30 26 25
186 186 182 174 190 203 198 201 203 202 194 198 193 198 206 185 183 187 181 162 156 161 166 167 171 181 196 204 197 186 193 189 173 147 113 93 69 62 50 22 20 14 6
188 188 176 167 181 195 200 197 191 190 184 178 168 157 148 145 160 168 161 159 154 146 135 132 138 154 159 166 168 164 163 151 132 106 88 85 71 62 41 37 30 22 18
187 187 172 165 173 184 192 191 181 174 170 157 144 148 144 146 152 161 151 143 141 134 131 132 124 122 128 129 124 117 106 106 109 113 104 94 79 60 43 37 29 20 9
186 180 169 168 171 177 177 174 167 159 153 143 136 131 129 136 166 163 150 136 129 126 129 129 128 125 124 123 117 106 98 93 95 98 96 91 84 70 60 48 18 2 26
187 181 176 171 168 165 165 162 157 151 140 136 132 128 127 128 142 151 144 130 121 115 120 122 123 120 119 120 117 105 97 92 90 90 90 87 81 74 67 63 36 26 10
186 181 179 173 167 163 166 155 148 144 135 131 121 121 128 130 134 137 143 132 116 111 110 109 116 116 115 115 113 113 105 110 108 98 88 78 69 61 59 55 48 43 23
305 170 167 167 166 162 154 152 148 137 131 120 113 112 118 127 125 129 128 124 120 114 108 105 106 112 115 114 114 113 111 115 102 94 87 79 65 56 48 45 44 39 24
63 135 144 155 152 150 148 140 138 133 120 114 108 100 101 107 110 112 118 117 114 108 105 106 106 103 102 103 104 106 111 109 103 93 84 71 64 53 41 34 31 23 5
77 62 109 123 122 130 131 129 123 124 123 119 112 108 105 105 106 110 117 121 122 111 110 109 106 103 102 100 101 106 103 101 96 87 79 71 60 49 38 33 25 15 8
56 69 85 96 102 109 108 106 113 117 117 118 118 117 116 112 111 112 111 110 110 112 115 117 119 115 113 108 106 100 92 89 91 89 85 77 62 45 32 21 14 4 357
74 76 74 90 93 93 90 97 99 100 122 121 121 123 123 119 125 128 129 125 124 125 122 116 111 110 107 101 95 94 91 90 87 82 79 72 59 41 29 18 11 2 355
75 74 76 74 89 97 99 92 99 111 115 122 124 126 117 120 123 122 123 124 128 131 119 118 113 112 110 108 100 95 90 87 80 78 74 63 53 38 22 12 6 1 351
89 91 92 97 97 98 104 105 104 93 98 103 106 110 113 118 117 115 116 116 118 120 110 115 113 113 113 109 108 108 103 92 88 83 74 58 44 28 21 8 3 357 350
87 90 92 97 101 104 103 106 108 108 106 102 103 107 109 111 113 114 118 117 109 103 110 113 114 115 113 113 113 111 106 99 90 82 70 51 40 26 16 5 357 348 343
86 85 91 93 95 98 101 103 103 104 104 104 104 102 106 107 110 111 114 113 113 114 116 115 115 116 116 116 117 114 111 101 90 77 59 42 27 23 7 349 346 348 344
85 90 91 91 92 93 96 98 98 99 98 98 97 101 113 114 108 105 107 109 111 113 115 116 116 117 120 122 123 121 112 97 80 63 45 30 15 10 349 346 351 348 345
89 90 95 95 95 95 96 96 99 99 96 92 96 108 115 112 110 108 110 110 114 118 119 119 119 121 123 126 125 120 114 92 77 60 34 12 3 355 350 348 343 341 341
98 96 95 95 96 96 97 98 98 99 101 103 106 109 112 107 108 111 113 114 116 118 121 122 119 120 121 124 128 121 115 107 74 33 7 357 354 343 345 344 341 341 350
101 100 96 95 99 103 99 100 106 107 107 109 112 113 113 110 111 112 114 116 118 120 122 122 120 122 123 125 130 127 135 136 359 347 345 344 343 337 340 339 339 346 347
105 102 104 102 105 107 110 111 112 113 115 115 116 114 113 113 115 117 118 121 125 125 126 128 127 126 129 137 143 190 244 281 306 319 329 332 330 330 335 336 338 338 335
115 115 114 116 117 116 115 113 113 115 116 119 117 117 117 117 119 120 123 128 129 128 128 129 133 146 181 201 244 259 277 293 301 308 317 318 320 327 327 329 331 330 327
114 114 115 117 119 122 121 121 121 122 123 124 124 122 121 121 121 123 127 131 133 135 137 146 156 186 220 259 273 282 290 297 301 303 305 305 309 314 315 320 324 321 321
Height
678 683 690 696 699 704 709 711 715 717 719 722 724 725 727 729 740 745 752 759 765 769 777 783 791 798 804 809 814 816 820 823 827 829 831 832 833 834 834 836 836 835 835
675 679 684 691 695 701 706 709 712 714 715 717 719 721 720 722 728 732 741 749 758 763 768 778 785 793 799 804 809 811 813 817 821 823 825 827 830 831 833 834 834 835 834
673 677 679 687 690 697 703 706 709 711 712 713 714 715 715 715 721 727 731 741 748 755 762 770 779 787 793 797 800 805 809 812 814 817 819 825 829 831 832 833 833 834 835
673 677 678 682 686 694 700 704 707 709 710 712 713 714 714 713 716 723 730 732 740 749 759 766 774 780 786 790 795 799 802 806 809 812 816 821 827 830 832 834 834 835 834
670 675 677 680 684 691 697 701 705 708 711 713 714 715 715 716 718 724 730 733 737 746 756 763 770 775 781 786 791 795 799 803 807 810 815 822 829 831 834 835 834 834 833
667 672 674 676 683 690 695 700 703 707 710 713 716 717 719 720 722 724 728 733 740 747 752 760 769 776 780 785 789 793 798 802 807 813 821 827 833 837 838 836 834 835 837
664 669 670 673 681 687 693 698 702 705 709 713 716 718 721 724 727 730 731 736 744 750 754 764 771 779 783 786 791 795 800 805 810 815 821 830 833 835 838 837 838 838 838
660 663 666 670 677 684 690 695 700 704 708 713 716 720 722 727 729 732 736 741 748 757 764 770 775 782 789 790 793 799 806 812 816 820 824 829 832 835 835 837 840 839 839
655 660 663 668 674 680 686 692 698 703 708 713 718 721 725 731 735 734 737 746 755 765 771 777 780 788 793 795 796 803 812 821 827 827 827 830 832 834 834 835 838 839 840
654 656 661 668 673 678 684 690 697 703 708 714 719 724 729 733 739 741 741 748 758 768 778 784 789 791 799 801 802 809 814 825 827 829 831 832 834 835 835 836 839 839 839
651 654 661 666 671 676 683 689 696 703 710 718 722 729 734 739 743 746 750 753 760 769 780 788 795 798 801 807 809 813 818 825 830 833 835 835 838 840 841 840 839 838 838
654 654 658 665 669 674 682 692 696 702 711 720 725 734 741 746 749 751 752 758 767 772 783 794 800 804 806 813 816 819 823 827 831 835 837 838 839 841 843 843 841 839 838
659 662 661 667 670 676 685 692 699 705 711 721 728 736 746 752 757 760 763 767 773 779 790 798 805 812 813 814 820 827 828 830 833 836 840 842 844 844 844 841 840 838 836
671 667 670 670 673 686 692 699 706 707 717 723 731 738 747 756 763 764 769 775 783 786 794 799 805 812 818 821 821 827 832 836 837 839 841 844 846 846 846 844 841 838 836
686 680 684 681 689 689 696 705 709 718 716 726 734 744 746 754 768 769 771 776 784 791 796 807 812 818 824 826 829 832 836 841 840 843 845 846 847 848 847 845 843 841 839
693 691 692 693 693 697 706 716 724 729 729 738 742 747 754 759 771 777 781 786 789 797 802 812 817 823 828 830 831 836 842 845 844 846 848 849 848 848 849 847 845 842 839
701 701 702 706 711 712 715 718 725 741 743 748 753 760 761 769 778 783 791 794 798 801 806 814 820 826 829 832 835 840 843 845 845 848 849 849 849 849 849 849 846 843 838
710 710 708 715 717 722 722 728 735 740 750 760 767 772 772 778 786 791 798 799 804 807 815 818 823 829 832 836 840 843 845 846 848 849 849 849 849 850 850 849 846 843 839
716 718 720 723 725 730 733 739 746 752 758 766 772 781 786 789 794 798 801 803 807 812 819 823 826 830 834 838 842 844 847 847 849 850 850 850 850 849 850 850 847 842 839
725 726 729 732 736 741 745 749 755 763 769 774 780 787 791 796 799 802 806 809 814 818 822 827 830 832 836 840 844 846 847 849 849 849 851 851 851 850 851 849 845 842 839
735 737 740 744 748 751 756 761 767 771 776 781 788 796 799 801 803 806 811 817 820 823 827 830 833 835 839 843 846 847 848 849 850 851 852 852 851 850 849 847 844 841 837
742 745 749 752 757 761 765 769 774 779 785 791 797 800 803 806 809 814 819 822 824 826 830 833 835 838 842 845 846 847 848 850 851 851 852 851 850 849 847 845 843 839 834
750 753 757 761 764 769 773 776 784 788 792 799 803 807 810 813 816 818 822 825 828 830 832 835 838 841 843 846 847 848 850 851 850 850 850 850 848 847 845 842 840 836 833
758 760 763 767 772 778 783 786 790 794 799 804 808 813 814 815 819 823 825 828 832 834 836 838 840 842 844 846 847 849 848 848 848 848 847 846 846 844 842 840 837 835 832
767 768 771 775 779 783 787 791 795 798 804 809 812 816 818 819 823 826 828 832 834 836 838 840 841 843 845 845 846 847 847 845 846 845 844 843 842 841 839 837 834 832 830
772 773 775 779 785 788 791 795 800 804 809 813 816 819 821 824 826 829 832 834 835 837 839 841 842 843 843 843 844 844 844 843 842 842 841 840 839 838 836 834 832 830 828